Toluca Jose Maria, Mexico

7:49 PM CDT on September 23, 2017 (GMT -0500)
Lic Adolfo Lopez Mateos International

Weather History for MMTO - July, 2013

Change the Weather History Date:

Wednesday, July 3, 2013

  Actual Average Record
Temperature  
Mean Temperature 60 °F -  
Max Temperature 71 °F 67 °F 75 °F (2016)
Min Temperature 48 °F 48 °F 46 °F (1996)
Degree Days  
Heating Degree Days 6    
Growing Degree Days 10 (Base 50)    
Moisture  
Dew Point 49 °F    
Average Humidity 78    
Maximum Humidity 94    
Minimum Humidity 43    
Precipitation  
Precipitation 0.85 in - - ()
Sea Level Pressure  
Sea Level Pressure 30.22 in    
Wind  
Wind Speed 3 mph ()    
Max Wind Speed 18 mph    
Max Gust Speed -    
Visibility 2.8 miles    
Events Fog , Rain , Thunderstorm    
Averages and records for this station are not official NWS values.
T = Trace of Precipitation, MM = Missing Value Source: Averaged Metar Reports

Daily Weather History Graph

Daily Weather History Graph

Search for Another Location

Airport or City:

Trip Planner

Search our weather history database for the weather conditions in past years. The results will help you decide how hot, cold, wet, or windy it might be!

Date:

Astronomy

Jul. 03, 2013 Rise Set
Actual Time 7:04 AM CDT 8:20 PM CDT
Civil Twilight 6:40 AM CDT 8:44 PM CDT
Nautical Twilight 6:11 AM CDT 9:13 PM CDT
Astronomical Twilight 5:41 AM CDT 9:43 PM CDT
Moon 3:28 AM CDT (7/3) 4:44 PM CDT (7/3)
Length of Visible Light 14h 04m
Length of Day
13h 16m
Waning Crescent, 18% of the Moon is Illuminated
Jul 3
Waning Crescent
Jul 8
New
Jul 15
First Quarter
Jul 22
Full
Jul 29
Last Quarter

Hourly Weather History & Observations

Time (CDT) Temp. Dew Point Humidity Pressure Visibility Wind Dir Wind Speed Gust Speed Precip Events Conditions
12:46 AM 53.6 °F 50.0 °F 88% 29.81 in 3.0 mi Calm Calm - N/A   Mostly Cloudy
1:47 AM 53.6 °F 50.0 °F 88% 30.40 in 3.0 mi ESE 4.6 mph - N/A   Mostly Cloudy
2:41 AM 51.8 °F 48.2 °F 88% 30.38 in 3.0 mi East 5.8 mph - N/A   Mostly Cloudy
4:49 AM 50.0 °F 48.2 °F 94% 30.35 in 2.0 mi Calm Calm - N/A   Overcast
5:42 AM 50.0 °F 48.2 °F 94% 30.34 in 2.0 mi Calm Calm - N/A   Overcast
6:01 AM 48.2 °F 44.6 °F 87% 30.34 in 1.0 mi Calm Calm - N/A   Overcast
6:45 AM 50.0 °F 46.4 °F 87% 29.87 in 0.5 mi Calm Calm - N/A Fog Fog
7:08 AM 50.0 °F 46.4 °F 87% 30.36 in 0.2 mi Calm Calm - N/A Fog Fog
7:30 AM 50.0 °F 46.4 °F 87% 30.37 in 0.2 mi Calm Calm - N/A Fog Fog
8:03 AM 50.0 °F 48.2 °F 94% 30.38 in 0.2 mi Calm Calm - N/A Fog Fog
8:30 AM 51.8 °F 48.2 °F 88% 30.38 in 0.2 mi Calm Calm - N/A Fog Fog
8:44 AM 51.8 °F 48.2 °F 88% 30.38 in 0.2 mi Calm Calm - N/A Fog Fog
8:58 AM 51.8 °F 50.0 °F 94% 30.39 in 0.2 mi Calm Calm - N/A Fog Fog
9:41 AM 53.6 °F 50.0 °F 88% 29.90 in 2.0 mi WNW 5.8 mph - N/A   Scattered Clouds
10:44 AM 55.4 °F 51.8 °F 88% 30.39 in 3.0 mi NW 5.8 mph - N/A   Haze
11:45 AM 62.6 °F 50.0 °F 63% 30.38 in 5.0 mi NW 8.1 mph - N/A   Mostly Cloudy
12:50 PM 64.4 °F 50.0 °F 59% 29.81 in 6.0 mi West 5.8 mph - N/A   Mostly Cloudy
1:46 PM 68.0 °F 48.2 °F 49% 30.35 in 6.0 mi WSW 4.6 mph - N/A   Mostly Cloudy
2:44 PM 71.6 °F 48.2 °F 43% 30.32 in 6.0 mi ESE 5.8 mph - N/A   Mostly Cloudy
3:40 PM 68.0 °F 46.4 °F 46% 29.73 in 6.0 mi ENE 3.5 mph - N/A   Mostly Cloudy
4:41 PM 69.8 °F 50.0 °F 49% 30.27 in 6.0 mi South 12.7 mph - N/A   Mostly Cloudy
5:43 PM 66.2 °F 50.0 °F 56% 30.25 in 6.0 mi South 12.7 mph - N/A   Mostly Cloudy
6:41 PM 64.4 °F 51.8 °F 64% 29.73 in 6.0 mi SSE 12.7 mph - N/A   Mostly Cloudy
7:23 PM 60.8 °F 48.2 °F 63% 30.29 in 2.0 mi NNE 6.9 mph - N/A Rain Light Rain
7:41 PM 57.2 °F 51.8 °F 82% 30.31 in 2.0 mi ESE 18.4 mph - N/A Rain , Thunderstorm Thunderstorms and Rain
8:40 PM 55.4 °F 50.0 °F 82% 30.32 in 2.0 mi SSW 5.8 mph - N/A Rain , Thunderstorm Light Thunderstorms and Rain
9:42 PM 55.4 °F 51.8 °F 88% 29.85 in 3.0 mi ENE 5.8 mph - N/A   Haze
10:44 PM 55.4 °F 51.8 °F 88% 30.37 in 2.0 mi NNE 5.8 mph - N/A Rain Light Rain
11:48 PM 55.4 °F 51.8 °F 88% 30.31 in 3.0 mi Calm Calm - N/A   Haze